Location: Newark
(11.0000°N, 122.6717°E)
Time: 23:08:50
(UTC+00:00)

ISS - Visible Passes

Search period start: 05 December 2019 00:00
Search period end: 15 December 2019 00:00
Orbit: 411 x 421 km, 51.6° (Epoch: 06 December)

Date Brightness Start Highest point End Pass type
(mag) Time Alt. Az. Time Alt. Az. Time Alt. Az.
12 Dec -0.9 11:24:13 10° WNW 11:24:56 15° WNW 11:24:56 15° WNW visible
13 Dec -3.8 10:35:25 10° NW 10:38:46 85° SW 10:42:07 10° SE visible
14 Dec -3.2 09:47:07 10° NNW 09:50:15 37° NE 09:53:22 10° ESE visible
